Weather past 2 weeks in Jamestown, Saint Helena

Now
66 °F

Mild.


Feels Like: 66 °F
Forecast: 75 / 77 °F
Wind: 10 mph from Southeast

Location: Saint Helena Island

Current Time: Mar 30, 2015 at 5:08:52 AM

Latest Report: Mar 30, 2015 at 4:00 AM


Visibility: N/A

Pressure: 29.97 "Hg

Humidity: 81%

Dew point: 60 °F

Location of JamestownLocation

Historic Weather in Jamestown — Graph

°F

Jamestown temperature yesterday

Maximum temperature yesterday: 74 °F (at 11:00 AM)
Minimum temperature yesterday: 63 °F (at 7:00 AM)
Average temperature yesterday: 69 °F

Past Weeks' High & Low Weather Summary

 TemperatureHumidityPressure
High76 °F (Mar 19, 2:00 PM)99% (Mar 15, 7:00 AM)30.09 "Hg (Mar 15, 7:00 AM)
Low63 °F (Mar 29, 7:00 AM)58% (Mar 29, 11:00 AM)29.85 "Hg (Mar 19, 5:00 AM)
Average70 °F83%29.98 "Hg
* Reported Mar 15 3:00 AM — Mar 30 3:00 AM, Jamestown, Weather by CustomWeather, © 2015

Note: Actual official high and low records may vary slightly from our data, if they occured in-between our weather recording intervals... More about our weather records

Advertising

Jamestown weather history for previous 24 hours

 ConditionsComfort  
Time TempWeatherWind HumidityBarometerVisibility
3:00 AM
Mon, Mar 30
66 °FMild.13 mph95%29.98 "HgN/A
2:00 AM64 °FMild.13 mph98%30.00 "HgN/A
1:00 AM67 °FMild.10 mph87%30.01 "HgN/A
11:00 PM
Sun, Mar 29
67 °FMild.12 mph84%30.03 "HgN/A
10:00 PM68 °FMild.12 mph84%30.03 "HgN/A
8:00 PM67 °FMild.8 mph84%29.98 "HgN/A
7:00 PM67 °FMild.8 mph86%29.97 "HgN/A
6:00 PM69 °FMild.10 mph82%29.96 "HgN/A
5:00 PM69 °FMild.10 mph84%29.95 "HgN/A
4:00 PM71 °FMild.12 mph83%29.94 "HgN/A
3:00 PM73 °FMild.10 mph71%29.95 "HgN/A
2:00 PM71 °FMild.12 mph75%29.97 "HgN/A
1:00 PM71 °FPartly sunny.15 mph72%29.99 "Hg37 mi
12:00 PM72 °FOvercast.13 mph76%30.01 "Hg37 mi
11:00 AM74 °FScattered clouds.12 mph58%30.02 "Hg37 mi
10:00 AM71 °FMild.12 mph69%30.03 "HgN/A
9:00 AM69 °FMild.9 mph78%30.04 "HgN/A
8:00 AM68 °FMild.12 mph74%30.03 "HgN/A
7:00 AM63 °FMild.10 mph99%30.04 "HgN/A
6:00 AM65 °FMild.12 mph91%30.02 "HgN/A
5:00 AM65 °FMild.15 mph98%30.00 "HgN/A
Weather by CustomWeather, © 2015

See weather overviewHow to use our weather pages